Other Surface Observations
Issued by NWS

Home | Current Version | Previous Version | Text Only | Print | Product List | Glossary On
Versions: 1 2 3 4 5 6 7 8 9 10 11 12 13 14 15 16 17 18 19 20 21 22 23 24 25 26 27 28 29 30 31 32 33 34 35 36 37 38 39 40 41 42 43 44 45 46 47 48 49 50
000
SXUS52 KTAE 190718
OSOTAE
OSOTAE
North Florida/South Alabama/Southwest Georgia Weather Roundup
National Weather Service Tallahassee Florida
200 AM EST FRI DEC 19 2014

Note: "fair" indicates few or no clouds below 12,000 feet with no
significant weather and/or obstructions to visibility.

!FLZ017-115-028-034-025-190800
...North Florida...

CITY           SKY/WX    TMP DP  RH WIND       PRES   REMARKS
TALLAHASSEE    MOCLDY    44  39  82 CALM      30.13F
APALACHICOLA   CLOUDY    48  43  82 CALM      30.13S
PERRY          FOG       42  42 100 CALM      30.13F VSB 1/2
CROSS CITY       N/A     47  44  90 CALM      30.13F
JACKSONVILLE   PTCLDY    44  44 100 W3        30.11F
$$

!FLZ112-006-005-002-011-190800
...Florida Panhandle...

CITY           SKY/WX    TMP DP  RH WIND       PRES   REMARKS
MARIANNA       CLOUDY    47  43  86 CALM      30.14S
BONIFAY          N/A     47  45  93 CALM      30.15
PANAMA CITY NW FAIR      50  45  83 NW6       30.13S
TYNDALL AFB    CLOUDY    48  47  98 E1        30.13S
TYND DRONE APT NOT AVBL
DE FUNIAK SPR  CLOUDY    50  41  69 N3        30.14F
EGLIN AFB      MOCLDY    53  41  63 N7        30.13F
DESTIN         CLOUDY    54  45  71 N5        30.13F
HURLBURT       CLOUDY    52  40  64 N6        30.12F
CRESTVIEW      CLOUDY    52  40  63 CALM      30.16F
PENSACOLA      CLOUDY    55  42  61 N6        30.14F
$$

!ALZ063-066-190800
...South Alabama...

CITY           SKY/WX    TMP DP  RH WIND       PRES   REMARKS
DOTHAN         CLOUDY    50  35  56 N5        30.17F
OZARK CAIRNS   CLOUDY    51  34  51 NW7       30.14F
FT RUCKER HELI MOCLDY    47  41  80 CALM      30.14F
RUCKER HELI 3  MOCLDY    50  36  59 N2        30.16F
RUCKER HELI 2  MOCLDY    50  36  58 N5        30.14F
FLORALA APT    CLOUDY    52  39  61 N3        30.15F
ANDALUSIA      CLOUDY    55  38  52 CALM      30.14F
TROY           MOCLDY    47  40  76 CALM      30.17R
EUFALA         FAIR      45  37  73 CALM      30.15S
MOBILE         CLOUDY    52  32  46 N6        30.16S
$$

!GAZ120>161-190800
...Southwest and South Central Georgia...

CITY           SKY/WX    TMP DP  RH WIND       PRES   REMARKS
THOMASVILLE    FAIR      45  45 100 NW5       30.14S WCI  42
BAINBRIDGE     MOCLDY    46  43  87 CALM      30.15S
MOODY AFB      PTCLDY    44  41  88 NW1       30.12S
VALDOSTA       CLEAR     41  39  93 CALM      30.12F
MOULTRIE       PTCLDY    45  43  93 CALM      30.14F
BLAKELY        MOCLDY    46  41  81 CALM      30.15F
ALBANY         PTCLDY    42  38  85 CALM      30.16S
TIFTON         FAIR      45  37  74 CALM      30.13S
FITZGERALD     FAIR      49  32  51 N3        30.15S
CORDELE        PTSUNNY   45  38  78 CALM      30.13F
AMERICUS       FAIR      45  34  65 N3        30.16S
HOMERVILLE     FAIR      45  43  93 CALM      30.12F
$$

!GMZ750-755-770-775-190800
...Coastal and Buoy Obs...

STATION/POSITION TIME  TEMP    WIND        PRES    VSBY  WAVE
                       AIR SEA DIR/SP/G                  HT/PER
                 (UTC) (F)     (DEG/KT/KT) (MB)    (MI)  (FT/S)
KEATON BEACH     0700   52     350/  2/  3 1020.2F
CEDAR KEY        0700   54      40/  2/  3 1020.6F
C TOWER          0700   59      10/  6/  7 1019.9F
APALACHICOLA BUO 0700   65 71  360/ 10/ 12 1019.8F         1/ 7
PANAMA CITY BUOY 0605   67 76   50/  6/  8 1020.2F         1/ 8
MOBILE BUOY      0700   69 75  100/  8/ 10 1019.3F         1/ 8
ORANGE BCH AL BU 0700   61 66   20/ 12/ 14 1019.8F         1
$$



USA.gov is the U.S. government's official web portal to all federal, state and local government web resources and services.